User: anonymous   Login
Location: Karaa?a�
(36.7158°N, 30.4165°E)
Time: 08:10:40
(UTC+00:00)
Language:

Nadezhda 1 Rocket - Orbit

View from above orbital plane
View from above orbital plane
View from above satellite
View from above satellite

Ground track
Ground track

The orbit data is extracted from the following two-line orbital elements,

1 20104U 89050B   21209.90250856  .00000058  00000-0  43691-4 0  9998
2 20104  82.9575 136.4801 0042395 296.9669  62.7161 13.77336972611243
Epoch (UTC): 28 July 2021 21:39:36
Eccentricity: 0.0042395
inclination: 82.9575°
perigee height: 942 km
apogee height: 1004 km
right ascension of ascending node: 136.4801°
argument of perigee: 296.9669°
revolutions per day: 13.77336972
mean anomaly at epoch: 62.7161°
orbit number at epoch: 61124

The dashed part of the orbit path shows where the satellite is in the earth's shadow,  

DLR